period_start,C,m1,H,J0,J1,J2,J3,J4,J5,JA,JB,JC,JD,JJ,JK,JN,#
2016-12-23 00:01:41,0.15,1.12,0.00,18.96,23.50,27.42,14.96,47.48,1036.15,2043.00,3107.35,2845.81,3230.49,599.78,615.56,4.82,0000 0000 0000 0000 000000
2016-12-23 00:06:42,0.15,1.13,0.00,18.98,23.51,27.44,15.10,47.57,1036.15,2042.99,3104.26,2843.62,3228.08,600.03,615.92,4.87,0000 0000 0000 0000 000000
2016-12-23 00:11:43,0.15,1.14,0.00,18.95,23.52,27.45,15.07,47.48,1036.09,2042.98,3101.28,2841.53,3225.73,600.11,615.99,4.93,0000 0000 0000 0000 000000
2016-12-23 00:16:44,0.15,1.14,0.00,18.96,23.52,27.45,15.04,47.38,1036.04,2042.98,3098.37,2839.44,3223.24,599.91,615.71,4.98,0000 0000 0000 0000 000000
2016-12-23 00:21:46,0.15,1.15,0.00,18.95,23.54,27.45,15.02,47.33,1036.04,2042.98,3095.54,2837.33,3220.82,600.32,616.28,5.03,0000 0000 0000 0000 000000
2016-12-23 00:26:47,0.15,1.16,0.00,18.96,23.55,27.45,15.02,47.46,1035.78,2042.96,3092.63,2835.19,3218.36,599.82,615.44,5.08,0000 0000 0000 0000 000000
2016-12-23 00:31:48,0.14,1.17,0.00,19.00,23.55,27.50,14.98,47.42,1035.71,2042.90,3089.61,2833.17,3216.11,599.60,615.12,5.13,0000 0000 0000 0000 000000
2016-12-23 00:36:49,0.13,1.18,0.00,19.00,23.55,27.49,15.03,47.47,1035.71,2042.70,3086.66,2831.04,3213.64,599.87,615.34,5.18,0000 0000 0000 0000 000000
2016-12-23 00:41:50,0.13,1.18,0.00,18.98,23.56,27.47,15.04,47.36,1035.70,2042.59,3083.86,2829.03,3211.31,599.99,615.55,5.23,0000 0000 0000 0000 000000
2016-12-23 00:46:51,0.15,1.19,0.00,19.00,23.57,27.50,15.03,47.46,1035.67,2042.46,3080.82,2826.89,3208.91,600.06,615.45,5.28,0000 0000 0000 0000 000000
2016-12-23 00:51:53,0.15,1.20,0.00,19.01,23.57,27.46,15.04,47.48,1035.67,2042.32,3077.57,2824.64,3206.33,599.77,615.26,5.33,0000 0000 0000 0000 000000
2016-12-23 00:56:54,0.17,1.21,0.00,19.01,23.57,27.47,15.05,47.53,1035.67,2042.11,3074.13,2822.22,3203.67,599.92,615.49,5.38,0000 0000 0000 0000 000000
2016-12-23 01:01:55,0.16,1.21,0.00,19.04,23.57,27.51,15.05,47.39,1035.66,2042.04,3071.07,2819.93,3200.98,599.98,615.41,5.43,0000 0000 0000 0000 000000
2016-12-23 01:06:56,0.15,1.22,0.00,19.04,23.58,27.51,15.00,47.44,1035.66,2042.01,3068.13,2817.79,3198.55,599.60,615.10,5.48,0000 0000 0000 0000 000000
2016-12-23 01:11:58,0.15,1.23,0.00,19.03,23.59,27.50,15.07,47.39,1035.58,2042.02,3065.17,2815.75,3196.23,600.16,615.55,5.53,0000 0000 0000 0000 000000
2016-12-23 01:16:59,0.15,1.24,0.00,19.02,23.60,27.51,15.05,47.37,1035.54,2042.01,3062.31,2813.71,3193.81,600.11,615.52,5.58,0000 0000 0000 0000 000000
2016-12-23 01:22:00,0.15,1.25,0.00,19.01,23.60,27.52,15.03,47.38,1035.56,2042.00,3059.56,2811.68,3191.28,600.07,615.52,5.63,0000 0000 0000 0000 000000
2016-12-23 01:27:01,0.15,1.25,0.00,19.02,23.60,27.52,15.04,47.41,1035.54,2042.00,3056.68,2809.61,3188.94,599.76,615.09,5.68,0000 0000 0000 0000 000000
2016-12-23 01:32:02,0.15,1.26,0.00,19.01,23.61,27.52,15.06,47.42,1035.41,2042.00,3053.51,2807.51,3186.74,599.58,614.93,5.73,0000 0000 0000 0000 000000
2016-12-23 01:37:03,0.15,1.27,0.00,18.98,23.62,27.51,15.03,47.46,1035.21,2042.00,3050.76,2805.51,3184.32,599.96,615.26,5.78,0000 0000 0000 0000 000000
2016-12-23 01:42:05,0.15,1.28,0.00,18.99,23.62,27.51,15.06,47.33,1035.18,2042.00,3048.05,2803.50,3181.95,599.96,615.23,5.83,0000 0000 0000 0000 000000
2016-12-23 01:47:06,0.15,1.28,0.00,19.03,23.62,27.56,14.97,47.21,1035.17,2041.99,3045.23,2801.49,3179.70,599.79,615.05,5.88,0000 0000 0000 0000 000000
2016-12-23 01:52:07,0.14,1.29,0.00,19.03,23.62,27.53,15.06,47.27,1035.17,2041.99,3042.48,2799.59,3177.52,599.46,614.59,5.93,0000 0000 0000 0000 000000
2016-12-23 01:57:09,0.14,1.30,0.00,19.02,23.62,27.53,15.09,47.39,1035.17,2041.99,3039.76,2797.64,3175.36,599.88,615.05,5.98,0000 0000 0000 0000 000000
2016-12-23 02:02:10,0.14,1.31,0.00,19.02,23.62,27.52,14.96,47.15,1035.15,2041.99,3037.01,2795.72,3173.22,600.10,615.20,6.03,0000 0000 0000 0000 000000
2016-12-23 02:07:11,0.14,1.31,0.00,19.04,23.62,27.54,15.02,47.30,1035.16,2041.99,3034.35,2793.78,3170.86,600.01,615.00,6.08,0000 0000 0000 0000 000000
2016-12-23 02:12:13,0.14,1.32,0.00,19.04,23.62,27.57,15.09,47.29,1035.15,2041.99,3031.66,2791.84,3168.62,600.06,615.18,6.13,0000 0000 0000 0000 000000
2016-12-23 02:17:14,0.14,1.33,0.00,18.96,23.62,27.56,15.05,47.32,1035.13,2041.98,3028.88,2789.90,3166.41,599.81,615.08,6.18,0000 0000 0000 0000 000000
2016-12-23 02:22:15,0.15,1.34,0.00,18.98,23.62,27.55,15.11,47.48,1034.98,2041.98,3026.01,2787.97,3164.31,600.21,615.36,6.23,0000 0000 0000 0000 000000
2016-12-23 02:27:17,0.15,1.34,0.00,19.01,23.62,27.48,15.07,47.44,1034.73,2041.99,3023.33,2785.98,3162.00,600.38,615.27,6.28,0000 0000 0000 0000 000000
2016-12-23 02:32:18,0.13,1.35,0.00,19.00,23.62,27.48,15.01,47.32,1034.74,2041.99,3020.73,2784.14,3159.77,599.82,614.78,6.33,0000 0000 0000 0000 000000
2016-12-23 02:37:19,0.15,1.36,0.00,19.03,23.62,27.50,15.04,47.36,1034.77,2041.99,3018.00,2782.15,3157.49,600.16,615.09,6.38,0000 0000 0000 0000 000000
2016-12-23 02:42:20,0.15,1.37,0.00,19.02,23.62,27.51,14.98,47.24,1034.79,2041.99,3015.12,2780.19,3155.35,599.44,614.51,6.43,0000 0000 0000 0000 000000
2016-12-23 02:47:22,0.15,1.37,0.00,19.03,23.62,27.49,15.03,47.28,1034.73,2041.98,3012.37,2778.17,3153.12,600.12,614.98,6.48,0000 0000 0000 0000 000000
2016-12-23 02:52:23,0.14,1.38,0.00,19.01,23.62,27.55,14.99,47.34,1034.69,2041.98,3009.62,2776.26,3150.81,599.79,614.73,6.53,0000 0000 0000 0000 000000
2016-12-23 02:57:25,0.15,1.39,0.00,19.02,23.62,27.48,15.05,47.29,1034.68,2041.99,3006.92,2774.29,3148.65,600.26,615.09,6.58,0000 0000 0000 0000 000000
2016-12-23 03:02:26,0.14,1.40,0.00,19.01,23.62,27.48,15.00,47.32,1034.68,2041.99,3004.23,2772.40,3146.61,599.86,614.74,6.63,0000 0000 0000 0000 000000
2016-12-23 03:07:27,0.15,1.40,0.00,19.01,23.62,27.52,15.04,47.43,1034.65,2041.99,3001.47,2770.41,3144.31,599.71,614.62,6.68,0000 0000 0000 0000 000000
2016-12-23 03:12:28,0.15,1.41,0.00,18.98,23.62,27.49,15.07,47.38,1034.67,2041.99,2998.81,2768.49,3142.11,600.00,614.95,6.73,0000 0000 0000 0000 000000
2016-12-23 03:17:30,0.15,1.42,0.00,19.00,23.63,27.49,15.01,47.38,1034.68,2041.99,2996.06,2766.57,3139.94,599.94,614.83,6.78,0000 0000 0000 0000 000000
2016-12-23 03:22:31,0.15,1.43,0.00,18.99,23.62,27.48,15.11,47.54,1034.63,2041.99,2993.24,2764.59,3137.74,599.78,614.63,6.83,0000 0000 0000 0000 000000
2016-12-23 03:27:32,0.14,1.43,0.00,19.03,23.63,27.54,15.04,47.39,1034.36,2041.98,2990.61,2762.63,3135.48,599.94,614.64,6.88,0000 0000 0000 0000 000000
2016-12-23 03:32:33,0.14,1.44,0.00,19.03,23.64,27.54,15.07,47.38,1034.26,2041.98,2988.16,2760.74,3133.44,600.11,614.67,6.93,0000 0000 0000 0000 000000
2016-12-23 03:37:35,0.14,1.45,0.00,19.01,23.64,27.56,14.98,47.29,1034.23,2041.98,2985.47,2758.90,3131.29,599.46,614.08,6.98,0000 0000 0000 0000 000000
2016-12-23 03:42:36,0.15,1.46,0.00,19.00,23.65,27.52,14.98,47.27,1034.21,2041.97,2982.71,2756.93,3129.05,599.95,614.67,7.03,0000 0000 0000 0000 000000
2016-12-23 03:47:37,0.14,1.46,0.00,19.01,23.65,27.51,15.03,47.30,1034.23,2041.97,2980.00,2754.98,3126.86,600.16,614.86,7.08,0000 0000 0000 0000 000000
2016-12-23 03:52:39,0.14,1.47,0.00,19.01,23.65,27.52,15.04,47.34,1034.23,2041.96,2977.47,2753.13,3124.74,600.11,614.80,7.13,0000 0000 0000 0000 000000
2016-12-23 03:57:40,0.13,1.48,0.00,19.00,23.65,27.53,15.09,47.28,1034.22,2041.97,2975.00,2751.45,3122.65,600.20,614.84,7.18,0000 0000 0000 0000 000000
2016-12-23 04:02:41,0.13,1.48,0.00,18.99,23.65,27.54,15.02,47.35,1034.21,2041.97,2972.59,2749.75,3120.52,599.69,614.47,7.23,0000 0000 0000 0000 000000
2016-12-23 04:07:42,0.14,1.49,0.00,18.98,23.65,27.53,15.07,47.26,1034.20,2041.98,2970.10,2747.91,3118.41,600.53,615.23,7.29,0000 0000 0000 0000 000000
2016-12-23 04:12:44,0.14,1.50,0.00,18.99,23.65,27.51,14.95,47.26,1034.20,2041.95,2967.41,2746.04,3116.41,599.37,614.17,7.34,0000 0000 0000 0000 000000
2016-12-23 04:17:45,0.13,1.51,0.00,18.99,23.65,27.50,15.03,47.39,1034.20,2041.96,2964.90,2744.28,3114.38,600.01,614.61,7.39,0000 0000 0000 0000 000000
2016-12-23 04:22:47,0.14,1.51,0.00,19.03,23.64,27.46,14.97,47.15,1034.20,2041.96,2962.43,2742.48,3112.30,599.79,614.42,7.44,0000 0000 0000 0000 000000
2016-12-23 04:27:48,0.14,1.52,0.00,19.03,23.64,27.44,15.00,47.38,1034.20,2041.93,2960.05,2740.68,3110.17,599.67,614.21,7.49,0000 0000 0000 0000 000000
2016-12-23 04:32:49,0.14,1.53,0.00,18.97,23.64,27.49,14.98,47.27,1034.20,2041.88,2957.40,2738.83,3108.10,599.77,614.46,7.54,0000 0000 0000 0000 000000
2016-12-23 04:37:51,0.13,1.53,0.00,18.97,23.63,27.50,15.07,47.29,1034.20,2041.88,2954.88,2737.02,3106.08,600.44,614.96,7.59,0000 0000 0000 0000 000000
2016-12-23 04:42:52,0.14,1.54,0.00,18.96,23.62,27.47,15.05,47.24,1034.20,2041.90,2952.37,2735.24,3104.00,600.23,615.01,7.64,0000 0000 0000 0000 000000
2016-12-23 04:47:53,0.14,1.55,0.00,18.95,23.62,27.48,15.00,47.23,1034.20,2041.93,2950.00,2733.49,3102.01,599.60,614.34,7.69,0000 0000 0000 0000 000000
2016-12-23 04:52:55,0.14,1.56,0.00,18.98,23.62,27.48,14.97,47.27,1034.18,2041.95,2947.43,2731.66,3100.02,599.62,614.35,7.74,0000 0000 0000 0000 000000
2016-12-23 04:57:56,0.14,1.56,0.00,18.95,23.62,27.47,14.98,47.33,1034.17,2041.94,2945.00,2729.88,3097.93,599.45,614.12,7.79,0000 0000 0000 0000 000000
2016-12-23 05:02:57,0.13,1.57,0.00,18.96,23.62,27.49,14.99,47.24,1034.17,2041.96,2942.75,2728.12,3095.88,599.90,614.80,7.84,0000 0000 0000 0000 000000
2016-12-23 05:07:59,0.13,1.58,0.00,18.93,23.62,27.49,15.03,47.36,1034.16,2041.96,2940.18,2726.41,3094.00,599.89,614.66,7.89,0000 0000 0000 0000 000000
2016-12-23 05:13:00,0.14,1.58,0.00,18.94,23.62,27.46,15.11,47.50,1034.11,2041.98,2937.65,2724.63,3092.08,600.39,615.09,7.94,0000 0000 0000 0000 000000
2016-12-23 05:18:01,0.14,1.59,0.00,18.95,23.62,27.48,14.98,47.32,1033.91,2041.98,2935.39,2722.87,3089.89,599.76,614.22,7.99,0000 0000 0000 0000 000000
2016-12-23 05:23:02,0.13,1.60,0.00,18.94,23.62,27.46,14.94,47.39,1033.80,2041.95,2932.97,2721.08,3087.85,599.96,614.50,8.04,0000 0000 0000 0000 000000
2016-12-23 05:28:04,0.13,1.61,0.00,18.97,23.62,27.43,15.00,47.36,1033.85,2041.97,2930.58,2719.32,3085.76,599.78,614.29,8.09,0000 0000 0000 0000 000000
2016-12-23 05:33:05,0.14,1.61,0.00,18.97,23.62,27.44,15.03,47.34,1033.82,2041.97,2928.31,2717.56,3083.73,600.04,614.56,8.14,0000 0000 0000 0000 000000
2016-12-23 05:38:07,0.14,1.62,0.00,18.96,23.62,27.47,14.98,47.22,1033.80,2041.96,2925.76,2715.76,3081.70,599.97,614.47,8.19,0000 0000 0000 0000 000000
2016-12-23 05:43:08,0.14,1.63,0.00,18.94,23.62,27.48,15.06,47.35,1033.84,2041.94,2922.98,2713.82,3079.63,600.44,615.00,8.24,0000 0000 0000 0000 000000
2016-12-23 05:48:09,0.14,1.63,0.00,18.94,23.61,27.48,15.06,47.27,1033.78,2041.96,2920.46,2711.97,3077.45,600.02,614.54,8.29,0000 0000 0000 0000 000000
2016-12-23 05:53:10,0.15,1.64,0.00,18.92,23.62,27.47,14.99,47.35,1033.72,2041.95,2917.87,2710.08,3075.26,599.78,614.35,8.34,0000 0000 0000 0000 000000
2016-12-23 05:58:12,0.16,1.65,0.00,18.93,23.62,27.51,15.05,47.38,1033.72,2041.93,2915.09,2708.09,3073.05,600.08,614.55,8.39,0000 0000 0000 0000 000000
2016-12-23 06:03:13,0.17,1.66,0.00,18.94,23.62,27.47,15.08,47.36,1033.72,2041.89,2911.96,2705.85,3070.56,600.06,614.56,8.44,0000 0000 0000 0000 000000
2016-12-23 06:08:14,0.23,1.67,0.00,18.95,23.62,27.50,15.11,47.39,1033.71,2041.68,2908.01,2703.02,3067.30,600.21,614.63,8.49,0000 0000 0000 0000 000000
2016-12-23 06:13:16,0.31,1.68,0.00,18.97,23.62,27.50,15.05,47.27,1033.71,2041.57,2902.32,2699.14,3063.02,600.27,614.65,8.54,0000 0000 0000 0000 000000
2016-12-23 06:18:17,0.36,1.70,0.00,18.97,23.62,27.50,14.99,47.38,1033.71,2041.60,2895.84,2694.70,3058.11,599.66,614.15,8.59,0000 0000 0000 0000 000000
2016-12-23 06:23:18,0.31,1.72,0.00,18.98,23.62,27.46,14.99,47.34,1033.71,2041.30,2889.54,2690.32,3053.18,599.67,614.06,8.64,0000 0000 0000 0000 000000
2016-12-23 06:28:20,0.30,1.73,0.00,18.99,23.62,27.48,15.05,47.35,1033.70,2041.20,2883.94,2686.49,3048.86,600.08,614.36,8.69,0000 0000 0000 0000 000000
2016-12-23 06:33:21,0.35,1.75,0.00,18.98,23.62,27.48,14.96,47.38,1033.71,2041.35,2878.14,2682.47,3044.29,599.95,614.45,8.74,0000 0000 0000 0000 000000
2016-12-23 06:38:22,0.28,1.76,0.00,18.95,23.62,27.48,15.07,47.35,1033.71,2041.45,2873.29,2679.10,3040.51,600.10,614.61,8.79,0000 0000 0000 0000 000000
2016-12-23 06:43:23,0.19,1.78,0.00,18.94,23.62,27.49,15.05,47.26,1033.71,2041.35,2869.16,2676.32,3037.34,599.83,614.31,8.84,0000 0000 0000 0000 000000
2016-12-23 06:48:24,0.21,1.79,0.00,18.96,23.62,27.48,15.04,47.43,1033.67,2041.30,2865.45,2673.62,3034.39,600.07,614.48,8.89,0000 0000 0000 0000 000000
2016-12-23 06:53:25,0.21,1.80,0.00,18.94,23.62,27.52,15.00,47.32,1033.62,2041.34,2861.86,2671.13,3031.64,599.78,614.16,8.94,0000 0000 0000 0000 000000
2016-12-23 06:58:27,0.21,1.81,0.00,18.94,23.62,27.49,15.01,47.33,1033.66,2041.58,2858.44,2668.88,3029.20,599.93,614.44,8.99,0000 0000 0000 0000 000000
2016-12-23 07:03:28,0.16,1.82,0.00,18.93,23.62,27.49,15.02,47.42,1033.63,2041.58,2855.43,2666.68,3026.69,600.27,614.73,9.04,0000 0000 0000 0000 000000
2016-12-23 07:08:29,0.15,1.83,0.00,18.91,23.62,27.50,14.97,47.48,1033.57,2041.26,2852.42,2664.39,3023.99,599.92,614.45,9.09,0000 0000 0000 0000 000000
2016-12-23 07:13:30,0.19,1.83,0.00,18.92,23.62,27.49,14.93,47.38,1033.56,2041.21,2849.25,2662.17,3021.36,599.72,614.25,9.14,0000 0000 0000 0000 000000
2016-12-23 07:18:31,0.19,1.84,0.00,18.92,23.62,27.52,15.12,47.55,1033.53,2041.17,2845.71,2659.67,3018.56,600.17,614.62,9.19,0000 0000 0000 0000 000000
2016-12-23 07:23:32,0.24,1.85,0.00,18.93,23.62,27.53,14.95,47.41,1033.48,2041.17,2841.81,2656.92,3015.45,599.82,614.27,9.24,0000 0000 0000 0000 000000
2016-12-23 07:28:33,0.24,1.87,0.00,18.95,23.63,27.49,15.05,47.34,1033.40,2041.11,2837.56,2653.84,3011.86,600.07,614.33,9.29,0000 0000 0000 0000 000000
2016-12-23 07:33:35,0.25,1.88,0.00,18.95,23.64,27.55,15.05,47.29,1033.30,2041.07,2833.15,2650.71,3008.36,600.19,614.46,9.34,0000 0000 0000 0000 000000
2016-12-23 07:38:36,0.25,1.89,0.00,18.97,23.64,27.49,14.93,47.38,1033.24,2041.04,2828.69,2647.70,3005.08,599.87,614.01,9.39,0000 0000 0000 0000 000000
2016-12-23 07:43:38,0.23,1.90,0.00,18.95,23.63,27.50,15.13,47.48,1033.24,2041.04,2824.65,2644.91,3002.06,600.26,614.44,9.44,0000 0000 0000 0000 000000
2016-12-23 07:48:39,0.26,1.92,0.00,18.93,23.63,27.49,15.02,47.36,1033.22,2041.03,2820.19,2641.74,2998.50,600.05,614.27,9.49,0000 0000 0000 0000 000000
2016-12-23 07:53:40,0.25,1.93,0.00,18.91,23.62,27.49,15.03,47.43,1033.22,2041.02,2815.70,2638.66,2995.06,599.94,614.30,9.54,0000 0000 0000 0000 000000
2016-12-23 07:58:41,0.23,1.94,0.00,18.92,23.62,27.46,14.99,47.32,1033.22,2041.04,2811.67,2635.82,2991.94,600.04,614.40,9.60,0000 0000 0000 0000 000000
2016-12-23 08:03:42,0.24,1.95,0.00,18.89,23.62,27.43,15.03,47.38,1033.20,2041.04,2807.70,2632.98,2988.64,600.21,614.50,9.65,0000 0000 0000 0000 000000
2016-12-23 08:08:44,0.24,1.97,0.00,18.94,23.62,27.41,14.99,47.31,1033.14,2041.04,2803.52,2630.08,2985.28,599.98,614.14,9.70,0000 0000 0000 0000 000000
2016-12-23 08:13:45,0.19,1.98,0.00,18.94,23.62,27.47,15.04,47.48,1032.99,2041.02,2799.91,2627.57,2982.50,599.89,613.87,9.75,0000 0000 0000 0000 000000
2016-12-23 08:18:46,0.19,1.99,0.00,18.91,23.62,27.49,15.05,47.35,1032.85,2041.03,2796.70,2625.28,2979.97,600.43,614.48,9.80,0000 0000 0000 0000 000000
2016-12-23 08:23:48,0.17,2.00,0.00,18.94,23.61,27.48,14.98,47.39,1032.75,2041.03,2793.59,2623.21,2977.50,600.00,613.91,9.85,0000 0000 0000 0000 000000
2016-12-23 08:28:49,0.16,2.01,0.00,18.97,23.60,27.45,15.05,47.35,1032.74,2041.05,2790.82,2621.31,2975.27,600.23,614.08,9.90,0000 0000 0000 0000 000000
2016-12-23 08:33:50,0.15,2.02,0.00,18.96,23.60,27.46,15.11,47.42,1032.74,2041.03,2788.23,2619.43,2972.99,600.26,614.03,9.95,0000 0000 0000 0000 000000
2016-12-23 08:38:51,0.16,2.02,0.00,18.94,23.60,27.48,14.95,47.40,1032.74,2041.05,2785.51,2617.53,2970.83,599.71,613.60,10.00,0000 0000 0000 0000 000000
2016-12-23 08:43:53,0.15,2.03,0.00,18.91,23.59,27.44,15.09,47.34,1032.73,2041.04,2782.92,2615.73,2968.85,600.12,614.09,10.05,0000 0000 0000 0000 000000
2016-12-23 08:48:54,0.15,2.04,0.00,18.87,23.57,27.39,15.03,47.26,1032.73,2041.05,2780.44,2613.93,2966.78,600.11,614.17,10.10,0000 0000 0000 0000 000000
2016-12-23 08:53:55,0.15,2.05,0.00,18.85,23.57,27.39,15.04,47.32,1032.72,2041.05,2777.88,2612.15,2964.80,600.16,614.24,10.15,0000 0000 0000 0000 000000
2016-12-23 08:58:57,0.15,2.05,0.00,18.86,23.57,27.33,15.12,47.36,1032.72,2041.05,2775.36,2610.30,2962.65,600.46,614.52,10.20,0000 0000 0000 0000 000000
2016-12-23 09:03:58,0.14,2.06,0.00,18.87,23.56,27.36,15.09,47.33,1032.71,2041.04,2772.95,2608.56,2960.59,600.21,614.26,10.25,0000 0000 0000 0000 000000
2016-12-23 09:08:59,0.14,2.07,0.00,18.87,23.55,27.33,14.92,47.37,1032.71,2041.05,2770.62,2606.85,2958.60,599.68,613.71,10.30,0000 0000 0000 0000 000000
2016-12-23 09:14:00,0.15,2.08,0.00,18.84,23.55,27.38,15.02,47.27,1032.63,2041.05,2768.17,2605.14,2956.66,600.08,613.93,10.35,0000 0000 0000 0000 000000
2016-12-23 09:19:01,0.15,2.08,0.00,18.83,23.55,27.36,14.95,47.30,1032.42,2041.09,2765.75,2603.40,2954.70,599.87,613.80,10.40,0000 0000 0000 0000 000000
2016-12-23 09:24:02,0.16,2.09,0.00,18.87,23.54,27.35,14.94,47.27,1032.31,2041.16,2763.18,2601.57,2952.76,600.00,613.80,10.45,0000 0000 0000 0000 000000
2016-12-23 09:29:03,0.15,2.10,0.00,18.83,23.53,27.31,15.07,47.24,1032.27,2041.28,2760.73,2599.85,2950.83,600.45,614.34,10.50,0000 0000 0000 0000 000000
2016-12-23 09:34:05,4.84,2.17,0.00,18.83,23.52,27.33,15.06,47.33,1032.25,2041.42,2704.98,2563.38,2911.19,600.18,613.98,10.55,0000 0000 0000 0000 000000
2016-12-23 09:39:06,6.84,2.61,0.00,18.84,23.52,27.32,14.93,47.51,1032.28,2041.01,2577.75,2479.88,2820.54,599.53,613.40,10.60,0000 0000 0000 0000 000000
2016-12-23 09:44:07,1.00,2.74,0.00,18.86,23.52,27.35,15.06,47.45,1032.26,2041.00,2548.59,2459.70,2798.80,600.00,613.78,10.65,0000 0000 0000 0000 000000
2016-12-23 09:49:09,0.21,2.76,0.00,18.84,23.52,27.33,14.97,47.48,1032.26,2041.00,2544.32,2456.63,2795.31,599.89,613.71,10.70,0000 0000 0000 0000 000000
2016-12-23 09:54:10,0.16,2.77,0.00,18.81,23.51,27.35,14.99,47.39,1032.25,2041.01,2542.00,2454.99,2793.31,599.78,613.60,10.75,0000 0000 0000 0000 000000
2016-12-23 09:59:12,0.27,2.78,0.87,18.83,23.51,27.35,14.98,47.44,1032.24,2041.00,2538.63,2452.57,2790.65,600.31,614.18,10.80,0000 0000 0000 0000 000000
2016-12-23 10:04:13,0.98,2.82,2.00,18.85,23.51,27.37,14.96,47.59,1032.24,2041.00,2526.24,2444.01,2781.16,599.70,613.49,10.85,0000 0000 0000 0000 000000
2016-12-23 10:09:15,0.81,2.87,2.00,18.80,23.51,27.36,15.08,47.55,1032.24,2041.00,2512.76,2434.65,2770.69,600.26,614.15,10.90,0000 0000 0000 0000 000000
2016-12-23 10:14:16,0.26,2.89,2.00,18.82,23.51,27.36,15.02,47.54,1032.24,2041.00,2507.96,2431.28,2766.76,600.19,614.13,10.95,0000 0000 0000 0000 000000
2016-12-23 10:19:17,0.45,2.90,2.00,18.85,23.52,27.34,15.06,47.56,1032.21,2041.00,2502.61,2427.64,2762.59,599.84,613.57,11.00,0000 0000 0000 0000 000000
2016-12-23 10:24:19,1.00,2.95,2.00,18.84,23.52,27.37,15.03,47.65,1032.12,2041.00,2488.69,2418.19,2751.93,600.08,613.89,11.05,0000 0000 0000 0000 000000
2016-12-23 10:29:20,0.73,2.99,1.53,18.84,23.52,27.40,15.08,47.58,1032.10,2041.00,2477.33,2410.38,2743.14,600.56,614.26,11.10,0000 0000 0000 0000 000000
2016-12-23 10:34:21,0.72,3.02,1.00,18.85,23.52,27.39,14.99,47.70,1032.07,2040.99,2467.01,2403.16,2734.92,599.98,613.76,11.15,0000 0000 0000 0000 000000
2016-12-23 10:39:22,0.66,3.06,1.00,18.85,23.53,27.40,14.97,47.62,1032.13,2040.99,2457.61,2396.53,2727.30,600.18,613.91,11.20,0000 0000 0000 0000 000000
2016-12-23 10:44:23,0.71,3.09,1.00,18.84,23.54,27.43,15.04,47.63,1032.15,2040.99,2447.81,2389.64,2719.36,600.17,613.93,11.25,0000 0000 0000 0000 000000
2016-12-23 10:49:24,0.68,3.13,1.00,18.83,23.54,27.44,14.98,47.73,1032.20,2040.99,2437.67,2382.61,2711.41,599.80,613.64,11.30,0000 0000 0000 0000 000000
2016-12-23 10:54:25,0.82,3.17,1.00,18.85,23.55,27.46,15.04,47.68,1032.06,2040.99,2427.17,2375.06,2702.74,600.01,613.66,11.35,0000 0000 0000 0000 000000
2016-12-23 10:59:27,0.87,3.21,1.00,18.86,23.55,27.45,15.06,47.63,1031.98,2040.98,2414.89,2366.64,2692.94,600.15,613.73,11.40,0000 0000 0000 0000 000000
2016-12-23 11:04:28,0.73,3.25,1.00,18.86,23.55,27.47,15.00,47.63,1031.86,2040.98,2404.06,2359.15,2684.39,600.03,613.58,11.45,0000 0000 0000 0000 000000
2016-12-23 11:09:29,0.76,3.29,1.00,18.83,23.55,27.47,14.97,47.68,1031.80,2040.98,2394.17,2352.24,2676.57,599.83,613.39,11.50,0000 0000 0000 0000 000000
2016-12-23 11:14:30,1.01,3.33,1.00,18.83,23.55,27.42,14.93,47.68,1031.78,2040.97,2380.88,2343.20,2666.30,599.84,613.40,11.55,0000 0000 0000 0000 000000
2016-12-23 11:19:30,1.10,3.39,1.00,18.83,23.55,27.41,15.05,47.78,1031.76,2040.96,2365.54,2332.89,2654.83,600.09,613.74,11.60,0000 0000 0000 0000 000000
2016-12-23 11:24:31,0.83,3.44,1.00,18.82,23.55,27.40,14.94,47.68,1031.76,2040.94,2353.18,2324.55,2645.35,599.87,613.45,11.65,0000 0000 0000 0000 000000
2016-12-23 11:29:32,0.72,3.47,1.00,18.83,23.55,27.43,15.04,47.74,1031.76,2040.75,2343.15,2317.51,2637.25,600.01,613.54,11.70,0000 0000 0000 0000 000000
2016-12-23 11:34:33,0.64,3.51,1.00,18.80,23.55,27.35,15.00,47.69,1031.77,2040.70,2334.21,2311.28,2630.19,600.00,613.67,11.75,0000 0000 0000 0000 000000
2016-12-23 11:39:34,0.48,3.53,1.00,18.76,23.54,27.31,15.07,47.78,1031.76,2040.53,2327.03,2306.38,2624.75,600.42,614.10,11.80,0000 0000 0000 0000 000000
2016-12-23 11:44:36,0.42,3.56,1.00,18.80,23.54,27.38,15.08,47.88,1031.77,2040.59,2321.19,2302.33,2620.24,600.50,614.03,11.85,0000 0000 0000 0000 000000
2016-12-23 11:49:37,0.41,3.58,1.00,18.84,23.54,27.38,15.07,47.87,1031.76,2040.53,2315.55,2298.37,2615.63,600.22,613.76,11.90,0000 0000 0000 0000 000000
2016-12-23 11:54:38,0.46,3.60,1.00,18.84,23.54,27.37,15.05,47.82,1031.76,2040.61,2310.30,2294.47,2611.09,600.26,613.72,11.96,0000 0000 0000 0000 000000
2016-12-23 11:59:40,0.43,3.62,0.47,18.84,23.54,27.35,15.00,47.67,1031.76,2040.52,2304.42,2290.20,2606.15,599.64,613.25,12.01,0000 0000 0000 0000 000000
2016-12-23 12:04:41,0.47,3.65,0.00,18.83,23.54,27.44,14.99,47.74,1031.76,2040.56,2298.58,2286.03,2601.24,599.90,613.44,12.06,0000 0000 0000 0000 000000
2016-12-23 12:09:42,0.63,3.68,0.00,18.83,23.54,27.37,15.00,47.72,1031.76,2040.37,2290.79,2280.28,2594.28,599.91,613.47,12.11,0000 0000 0000 0000 000000
2016-12-23 12:14:43,0.63,3.71,0.00,18.81,23.52,27.37,15.08,47.74,1031.76,2040.12,2282.47,2274.32,2587.14,600.23,613.80,12.16,0000 0000 0000 0000 000000
2016-12-23 12:19:44,0.61,3.74,0.00,18.80,23.52,27.30,14.88,47.77,1031.76,2040.03,2274.77,2268.71,2580.63,599.85,613.52,12.21,0000 0000 0000 0000 000000
2016-12-23 12:24:46,0.58,3.77,0.00,18.79,23.52,27.34,15.01,47.83,1031.76,2040.06,2267.38,2263.39,2574.37,600.32,613.91,12.26,0000 0000 0000 0000 000000
2016-12-23 12:29:47,0.54,3.80,0.57,18.81,23.52,27.31,14.96,47.83,1031.76,2040.09,2260.72,2258.56,2568.67,599.62,613.21,12.31,0000 0000 0000 0000 000000
2016-12-23 12:34:49,0.51,3.83,1.00,18.81,23.50,27.27,14.99,47.86,1031.74,2040.10,2254.40,2253.89,2563.16,599.86,613.46,12.36,0000 0000 0000 0000 000000
2016-12-23 12:39:50,0.48,3.85,1.00,18.80,23.50,27.28,14.96,47.80,1031.60,2040.09,2248.31,2249.47,2558.10,599.83,613.36,12.41,0000 0000 0000 0000 000000
2016-12-23 12:44:51,0.44,3.87,1.00,18.77,23.50,27.31,15.05,47.84,1031.55,2040.08,2242.74,2245.39,2553.44,600.36,613.89,12.46,0000 0000 0000 0000 000000
2016-12-23 12:49:52,0.41,3.89,1.00,18.79,23.49,27.31,15.01,47.77,1031.45,2040.13,2237.80,2241.65,2548.97,599.93,613.47,12.51,0000 0000 0000 0000 000000
2016-12-23 12:54:54,0.36,3.91,1.00,18.78,23.47,27.28,15.08,47.83,1031.34,2040.09,2233.12,2238.36,2544.96,600.08,613.49,12.56,0000 0000 0000 0000 000000
2016-12-23 12:59:55,0.34,3.93,0.43,18.78,23.47,27.26,14.97,47.87,1031.30,2040.20,2229.17,2235.49,2541.55,600.06,613.47,12.61,0000 0000 0000 0000 000000